Location: Berlise
(49.6641°N, 4.1077°E)
Time: 23:39:25
(UTC+00:00)

CZ-4B R/B - Pass Details

Date: 27 January 2021
Orbit: 486 x 651 km, 97.9° (Epoch: 01 March)

Event Time Altitude Azimuth Distance (km) Brightness Sun altitude
Rises 06:40:50 0° 356° (N) 2,581 6.0 -7.0°
Reaches altitude 10° 06:43:53 10° 327° (NNW) 1,709 4.9 -6.5°
Maximum altitude 06:45:31 13° 300° (WNW) 1,556 4.5 -6.3°
Drops below altitude 10° 06:47:09 10° 274° (W) 1,729 4.8 -6.0°
Sets 06:50:17 0° 245° (WSW) 2,642 5.9 -5.6°
